Year,Month,Day,Hour,Minute,Value (Times are PST for temperature in C)
2012,06,16,00,00,13.20
2012,06,16,00,01,13.20
2012,06,16,00,02,13.20
2012,06,16,00,05,13.20
2012,06,16,00,06,13.20
2012,06,16,00,07,13.20
2012,06,16,00,08,13.20
2012,06,16,00,09,13.20
2012,06,16,00,10,13.20
2012,06,16,00,12,13.20
2012,06,16,00,13,13.20
2012,06,16,00,15,13.20
2012,06,16,00,16,13.20
2012,06,16,00,17,13.20
2012,06,16,00,19,13.20
2012,06,16,00,20,13.20
2012,06,16,00,21,13.20
2012,06,16,00,22,13.20
2012,06,16,00,23,13.20
2012,06,16,00,24,13.20
2012,06,16,00,25,13.20
2012,06,16,00,26,13.20
2012,06,16,00,27,13.20
2012,06,16,00,28,13.20
2012,06,16,00,29,13.20
2012,06,16,00,31,13.20
2012,06,16,00,32,13.20
2012,06,16,00,33,13.20
2012,06,16,00,35,13.10
2012,06,16,00,36,13.10
2012,06,16,00,37,13.10
2012,06,16,00,39,13.10
2012,06,16,00,40,13.10
2012,06,16,00,42,13.10
2012,06,16,00,43,13.10
2012,06,16,00,44,13.10
2012,06,16,00,46,13.10
2012,06,16,00,48,13.10
2012,06,16,00,50,13.10
2012,06,16,00,51,13.10
2012,06,16,00,53,13.10
2012,06,16,00,54,13.10
2012,06,16,00,55,13.10
2012,06,16,00,57,13.10
2012,06,16,00,59,13.10
2012,06,16,01,00,13.10
2012,06,16,01,01,13.10
2012,06,16,01,02,13.10
2012,06,16,01,04,13.10
2012,06,16,01,06,13.10
2012,06,16,01,07,13.10
2012,06,16,01,09,13.10
2012,06,16,01,11,13.10
2012,06,16,01,12,13.10
2012,06,16,01,14,13.10
2012,06,16,01,15,13.10
2012,06,16,01,17,13.00
2012,06,16,01,18,13.00
2012,06,16,01,20,13.00
2012,06,16,01,21,13.00
2012,06,16,01,23,13.00
2012,06,16,01,25,13.10
2012,06,16,01,26,13.10
2012,06,16,01,28,13.10
2012,06,16,01,30,13.10
2012,06,16,01,32,13.10
2012,06,16,01,33,13.10
2012,06,16,01,34,13.10
2012,06,16,01,35,13.10
2012,06,16,01,37,13.10
2012,06,16,01,38,13.10
2012,06,16,01,39,13.10
2012,06,16,01,40,13.00
2012,06,16,01,42,13.00
2012,06,16,01,43,13.00
2012,06,16,01,44,13.00
2012,06,16,01,45,13.10
2012,06,16,01,46,13.00
2012,06,16,01,47,13.00
2012,06,16,01,48,13.10
2012,06,16,01,49,13.10
2012,06,16,01,50,13.00
2012,06,16,01,51,13.00
2012,06,16,01,52,13.00
2012,06,16,01,53,13.00
2012,06,16,01,54,13.10
2012,06,16,01,55,13.00
2012,06,16,01,56,13.00
2012,06,16,01,57,13.10
2012,06,16,01,58,13.10
2012,06,16,01,59,13.10
2012,06,16,02,00,13.10
2012,06,16,02,01,13.10
2012,06,16,02,03,13.10
2012,06,16,02,04,13.10
2012,06,16,02,05,13.10
2012,06,16,02,06,13.10
2012,06,16,02,08,13.10
2012,06,16,02,09,13.20
2012,06,16,02,10,13.20
2012,06,16,02,11,13.20
2012,06,16,02,13,13.20
2012,06,16,02,15,13.30
2012,06,16,02,16,13.30
2012,06,16,02,17,13.30
2012,06,16,02,19,13.40
2012,06,16,02,20,13.40
2012,06,16,02,21,13.40
2012,06,16,02,23,13.40
2012,06,16,02,24,13.40
2012,06,16,02,25,13.40
2012,06,16,02,26,13.50
2012,06,16,02,28,13.60
2012,06,16,02,29,13.60
2012,06,16,02,31,13.60
2012,06,16,02,32,13.70
2012,06,16,02,33,13.70
2012,06,16,02,35,13.70
2012,06,16,02,36,13.70
2012,06,16,02,37,13.70
2012,06,16,02,39,13.70
2012,06,16,02,41,13.70
2012,06,16,02,43,13.70
2012,06,16,02,44,13.80
2012,06,16,02,45,13.70
2012,06,16,02,46,13.80
2012,06,16,02,48,13.80
2012,06,16,02,49,13.80
2012,06,16,02,50,13.80
2012,06,16,02,51,13.80
2012,06,16,02,52,13.80
2012,06,16,02,53,13.80
2012,06,16,02,54,13.80
2012,06,16,02,55,13.80
2012,06,16,02,57,13.80
2012,06,16,02,59,13.80
2012,06,16,03,00,13.90
2012,06,16,03,01,13.90
2012,06,16,03,03,13.90
2012,06,16,03,05,13.90
2012,06,16,03,06,13.90
2012,06,16,03,07,14.00
2012,06,16,03,08,14.00
2012,06,16,03,09,14.00
2012,06,16,03,11,14.10
2012,06,16,03,12,14.10
2012,06,16,03,13,14.10
2012,06,16,03,14,14.20
2012,06,16,03,15,14.20
2012,06,16,03,16,14.20
2012,06,16,03,17,14.20
2012,06,16,03,18,14.20
2012,06,16,03,19,14.20
2012,06,16,03,20,14.20
2012,06,16,03,21,14.20
2012,06,16,03,22,14.20
2012,06,16,03,23,14.20
2012,06,16,03,25,14.20
2012,06,16,03,26,14.20
2012,06,16,03,28,14.20
2012,06,16,03,30,14.30
2012,06,16,03,32,14.30
2012,06,16,03,33,14.30
2012,06,16,03,34,14.30
2012,06,16,03,36,14.20
2012,06,16,03,37,14.30
2012,06,16,03,38,14.20
2012,06,16,03,39,14.30
2012,06,16,03,40,14.20
2012,06,16,03,41,14.20
2012,06,16,03,42,14.20
2012,06,16,03,43,14.20
2012,06,16,03,44,14.20
2012,06,16,03,45,14.20
2012,06,16,03,46,14.20
2012,06,16,03,47,14.30
2012,06,16,03,48,14.20
2012,06,16,03,49,14.20
2012,06,16,03,51,14.20
2012,06,16,03,52,14.20
2012,06,16,03,53,14.30
2012,06,16,03,55,14.30
2012,06,16,03,56,14.30
2012,06,16,03,57,14.30
2012,06,16,03,59,14.30
2012,06,16,04,00,14.30
2012,06,16,04,01,14.30
2012,06,16,04,02,14.30
2012,06,16,04,04,14.30
2012,06,16,04,05,14.30
2012,06,16,04,06,14.30
2012,06,16,04,07,14.30
2012,06,16,04,09,14.40
2012,06,16,04,10,14.40
2012,06,16,04,12,14.40
2012,06,16,04,13,14.40
2012,06,16,04,15,14.40
2012,06,16,04,16,14.40
2012,06,16,04,17,14.40
2012,06,16,04,18,14.40
2012,06,16,04,19,14.40
2012,06,16,04,20,14.40
2012,06,16,04,21,14.40
2012,06,16,04,22,14.40
2012,06,16,04,23,14.40
2012,06,16,04,24,14.40
2012,06,16,04,26,14.40
2012,06,16,04,27,14.40
2012,06,16,04,28,14.40
2012,06,16,04,30,14.40
2012,06,16,04,31,14.40
2012,06,16,04,32,14.40
2012,06,16,04,33,14.40
2012,06,16,04,34,14.40
2012,06,16,04,35,14.40
2012,06,16,04,36,14.40
2012,06,16,04,37,14.40
2012,06,16,04,39,14.40
2012,06,16,04,40,14.40
2012,06,16,04,41,14.40
2012,06,16,04,42,14.40
2012,06,16,04,43,14.40
2012,06,16,04,44,14.40
2012,06,16,04,45,14.30
2012,06,16,04,46,14.30
2012,06,16,04,47,14.30
2012,06,16,04,48,14.30
2012,06,16,04,49,14.30
2012,06,16,04,50,14.30
2012,06,16,04,51,14.30
2012,06,16,04,52,14.30
2012,06,16,04,53,14.30
2012,06,16,04,54,14.30
2012,06,16,04,55,14.30
2012,06,16,04,56,14.30
2012,06,16,04,57,14.30
2012,06,16,04,58,14.30
2012,06,16,04,59,14.30
2012,06,16,05,00,14.30
2012,06,16,05,01,14.30
2012,06,16,05,02,14.30
2012,06,16,05,04,14.30
2012,06,16,05,05,14.30
2012,06,16,05,06,14.30
2012,06,16,05,07,14.30
2012,06,16,05,08,14.30
2012,06,16,05,09,14.30
2012,06,16,05,10,14.30
2012,06,16,05,11,14.30
2012,06,16,05,12,14.30
2012,06,16,05,13,14.30
2012,06,16,05,14,14.30
2012,06,16,05,15,14.30
2012,06,16,05,16,14.30
2012,06,16,05,17,14.30
2012,06,16,05,18,14.30
2012,06,16,05,19,14.30
2012,06,16,05,20,14.30
2012,06,16,05,21,14.30
2012,06,16,05,22,14.30
2012,06,16,05,23,14.30
2012,06,16,05,24,14.30
2012,06,16,05,25,14.30
2012,06,16,05,26,14.30
2012,06,16,05,27,14.30
2012,06,16,05,28,14.30
2012,06,16,05,29,14.30
2012,06,16,05,30,14.30
2012,06,16,05,31,14.30
2012,06,16,05,32,14.30
2012,06,16,05,33,14.30
2012,06,16,05,34,14.30
2012,06,16,05,35,14.30
2012,06,16,05,36,14.30
2012,06,16,05,37,14.30
2012,06,16,05,38,14.30
2012,06,16,05,39,14.30
2012,06,16,05,40,14.30
2012,06,16,05,41,14.30
2012,06,16,05,42,14.30
2012,06,16,05,43,14.30
2012,06,16,05,44,14.30
2012,06,16,05,45,14.30
2012,06,16,05,46,14.30
2012,06,16,05,47,14.30
2012,06,16,05,48,14.30
2012,06,16,05,49,14.30
2012,06,16,05,50,14.30
2012,06,16,05,51,14.30
2012,06,16,05,52,14.30
2012,06,16,05,53,14.30
2012,06,16,05,54,14.30
2012,06,16,05,55,14.30
2012,06,16,05,56,14.40
2012,06,16,05,57,14.40
2012,06,16,05,58,14.40
2012,06,16,05,59,14.40
2012,06,16,06,00,14.40
2012,06,16,06,01,14.40
2012,06,16,06,02,14.40
2012,06,16,06,04,14.40
2012,06,16,06,07,14.40
2012,06,16,06,08,14.40
2012,06,16,06,09,14.40
2012,06,16,06,10,14.40
2012,06,16,06,11,14.40
2012,06,16,06,12,14.30
2012,06,16,06,13,14.30
2012,06,16,06,14,14.30
2012,06,16,06,15,14.30
2012,06,16,06,16,14.30
2012,06,16,06,17,14.30
2012,06,16,06,18,14.30
2012,06,16,06,19,14.30
2012,06,16,06,20,14.30
2012,06,16,06,21,14.30
2012,06,16,06,22,14.30
2012,06,16,06,23,14.30
2012,06,16,06,24,14.30
2012,06,16,06,25,14.30
2012,06,16,06,26,14.30
2012,06,16,06,27,14.30
2012,06,16,06,28,14.30
2012,06,16,06,43,14.40
2012,06,16,06,44,14.40
2012,06,16,06,45,14.50
2012,06,16,06,46,14.50
2012,06,16,06,47,14.50
2012,06,16,06,48,14.60
2012,06,16,06,49,14.60
2012,06,16,06,50,14.60
2012,06,16,06,51,14.60
2012,06,16,06,52,14.60
2012,06,16,06,53,14.60
2012,06,16,06,54,14.60
2012,06,16,06,55,14.60
2012,06,16,06,57,14.60
2012,06,16,06,58,14.60
2012,06,16,06,59,14.60
2012,06,16,07,00,14.60
2012,06,16,07,01,14.60
2012,06,16,07,02,14.60
2012,06,16,07,06,14.60
2012,06,16,07,07,14.60
2012,06,16,07,08,14.60
2012,06,16,07,09,14.60
2012,06,16,07,10,14.60
2012,06,16,07,11,14.60
2012,06,16,07,12,14.50
2012,06,16,07,13,14.50
2012,06,16,07,14,14.50
2012,06,16,07,15,14.50
2012,06,16,07,16,14.50
2012,06,16,07,18,14.50
2012,06,16,07,20,14.50
2012,06,16,07,22,14.50
2012,06,16,07,23,14.50
2012,06,16,07,25,14.50
2012,06,16,07,26,14.50
2012,06,16,07,28,14.50
2012,06,16,07,29,14.50
2012,06,16,07,31,14.50
2012,06,16,07,32,14.60
2012,06,16,07,34,14.60
2012,06,16,07,35,14.60
2012,06,16,07,36,14.60
2012,06,16,07,38,14.60
2012,06,16,07,39,14.60
2012,06,16,07,40,14.60
2012,06,16,07,41,14.60
2012,06,16,07,43,14.60
2012,06,16,07,44,14.60
2012,06,16,07,45,14.70
2012,06,16,07,47,14.70
2012,06,16,07,48,14.70
2012,06,16,07,49,14.70
2012,06,16,07,50,14.80
2012,06,16,07,51,14.80
2012,06,16,07,53,14.80
2012,06,16,07,54,14.80
2012,06,16,07,55,14.80
2012,06,16,07,56,14.80
2012,06,16,07,57,14.80
2012,06,16,07,58,14.80
2012,06,16,08,00,14.70
2012,06,16,08,01,14.70
2012,06,16,08,02,14.70
2012,06,16,08,03,14.60
2012,06,16,08,04,14.60
2012,06,16,08,07,14.60
2012,06,16,08,08,14.60
2012,06,16,08,09,14.60
2012,06,16,08,10,14.60
2012,06,16,08,11,14.60
2012,06,16,08,13,14.70
2012,06,16,08,14,14.70
2012,06,16,08,16,14.70
2012,06,16,08,18,14.80
2012,06,16,08,20,14.90
2012,06,16,08,21,15.00
2012,06,16,08,22,15.00
2012,06,16,08,24,15.00
2012,06,16,08,25,15.00
2012,06,16,08,27,15.00
2012,06,16,08,29,15.00
2012,06,16,08,31,15.00
2012,06,16,08,32,15.00
2012,06,16,08,33,15.00
2012,06,16,08,35,15.00
2012,06,16,08,36,15.10
2012,06,16,08,37,15.10
2012,06,16,08,39,15.10
2012,06,16,08,40,15.10
2012,06,16,08,41,15.10
2012,06,16,08,43,15.10
2012,06,16,08,44,15.10
2012,06,16,08,45,15.10
2012,06,16,08,46,15.10
2012,06,16,08,48,15.20
2012,06,16,08,49,15.20
2012,06,16,08,50,15.20
2012,06,16,08,52,15.20
2012,06,16,08,54,15.30
2012,06,16,08,55,15.20
2012,06,16,08,56,15.20
2012,06,16,08,58,15.20
2012,06,16,08,59,15.20
2012,06,16,09,00,15.20
2012,06,16,09,01,15.20
2012,06,16,09,02,15.20
2012,06,16,09,05,15.20
2012,06,16,09,06,15.30
2012,06,16,09,08,15.30
2012,06,16,09,10,15.40
2012,06,16,09,11,15.40
2012,06,16,09,12,15.40
2012,06,16,09,14,15.50
2012,06,16,09,15,15.50
2012,06,16,09,16,15.50
2012,06,16,09,17,15.50
2012,06,16,09,19,15.50
2012,06,16,09,20,15.60
2012,06,16,09,21,15.60
2012,06,16,09,23,15.60
2012,06,16,09,24,15.60
2012,06,16,09,26,15.60
2012,06,16,09,27,15.60
2012,06,16,09,29,15.60
2012,06,16,09,30,15.60
2012,06,16,09,31,15.60
2012,06,16,09,33,15.60
2012,06,16,09,34,15.60
2012,06,16,09,35,15.60
2012,06,16,09,37,15.60
2012,06,16,09,38,15.60
2012,06,16,09,40,15.60
2012,06,16,09,41,15.60
2012,06,16,09,43,15.60
2012,06,16,09,45,15.60
2012,06,16,09,46,15.60
2012,06,16,09,48,15.60
2012,06,16,09,49,15.60
2012,06,16,09,50,15.60
2012,06,16,09,52,15.60
2012,06,16,09,53,15.60
2012,06,16,09,54,15.60
2012,06,16,09,56,15.50
2012,06,16,09,57,15.50
2012,06,16,09,58,15.50
2012,06,16,10,00,15.50
2012,06,16,10,01,15.50
2012,06,16,10,02,15.50
2012,06,16,10,05,15.50
2012,06,16,10,07,15.50
2012,06,16,10,09,15.50
2012,06,16,10,10,15.50
2012,06,16,10,12,15.40
2012,06,16,10,13,15.40
2012,06,16,10,15,15.40
2012,06,16,10,17,15.40
2012,06,16,10,19,15.40
2012,06,16,10,20,15.40
2012,06,16,10,21,15.40
2012,06,16,10,23,15.40
2012,06,16,10,24,15.40
2012,06,16,10,25,15.40
2012,06,16,10,27,15.40
2012,06,16,10,28,15.40
2012,06,16,10,30,15.40
2012,06,16,10,31,15.40
2012,06,16,10,33,15.50
2012,06,16,10,34,15.60
2012,06,16,10,35,15.60
2012,06,16,10,36,15.60
2012,06,16,10,37,15.60
2012,06,16,10,38,15.60
2012,06,16,10,40,15.60
2012,06,16,10,41,15.70
2012,06,16,10,43,15.70
2012,06,16,10,44,15.80
2012,06,16,10,46,15.80
2012,06,16,10,47,15.80
2012,06,16,10,48,15.80
2012,06,16,10,50,15.80
2012,06,16,10,51,15.80
2012,06,16,10,53,15.80
2012,06,16,10,55,15.90
2012,06,16,10,57,15.90
2012,06,16,10,59,15.80
2012,06,16,11,01,15.80
2012,06,16,11,02,15.80
2012,06,16,11,05,15.80
2012,06,16,11,07,15.80
2012,06,16,11,08,15.80
2012,06,16,11,10,15.70
2012,06,16,11,11,15.70
2012,06,16,11,13,15.60
2012,06,16,11,14,15.60
2012,06,16,11,15,15.60
2012,06,16,11,16,15.50
2012,06,16,11,17,15.50
2012,06,16,11,18,15.50
2012,06,16,11,19,15.40
2012,06,16,11,20,15.50
2012,06,16,11,21,15.50
2012,06,16,11,22,15.50
2012,06,16,11,23,15.50
2012,06,16,11,24,15.60
2012,06,16,11,25,15.60
2012,06,16,11,27,15.60
2012,06,16,11,29,15.70
2012,06,16,11,31,15.80
2012,06,16,11,33,15.80
2012,06,16,11,34,15.80
2012,06,16,11,36,15.70
2012,06,16,11,38,15.70
2012,06,16,11,39,15.70
2012,06,16,11,40,15.70
2012,06,16,11,41,15.60
2012,06,16,11,43,15.60
2012,06,16,11,45,15.60
2012,06,16,11,46,15.60
2012,06,16,11,48,15.60
2012,06,16,11,49,15.60
2012,06,16,11,50,15.60
2012,06,16,11,52,15.60
2012,06,16,11,53,15.60
2012,06,16,11,54,15.60
2012,06,16,11,56,15.60
2012,06,16,11,57,15.60
2012,06,16,11,58,15.60
2012,06,16,12,00,15.60
2012,06,16,12,01,15.60
2012,06,16,12,02,15.60
2012,06,16,12,03,15.60
2012,06,16,12,05,15.50
2012,06,16,12,07,15.60
2012,06,16,12,08,15.60
2012,06,16,12,09,15.60
2012,06,16,12,11,15.60
2012,06,16,12,12,15.60
2012,06,16,12,13,15.60
2012,06,16,12,15,15.60
2012,06,16,12,16,15.60
2012,06,16,12,17,15.70
2012,06,16,12,19,15.70
2012,06,16,12,20,15.70
2012,06,16,12,21,15.80
2012,06,16,12,23,15.80
2012,06,16,12,24,15.80
2012,06,16,12,25,15.90
2012,06,16,12,27,15.90
2012,06,16,12,29,16.00
2012,06,16,12,31,16.10
2012,06,16,12,33,16.20
2012,06,16,12,34,16.30
2012,06,16,12,36,16.40
2012,06,16,12,37,16.50
2012,06,16,12,38,16.60
2012,06,16,12,40,16.70
2012,06,16,12,42,16.80
2012,06,16,12,44,16.90
2012,06,16,12,46,17.10
2012,06,16,12,47,17.10
2012,06,16,12,48,17.10
2012,06,16,12,49,17.10
2012,06,16,12,50,17.10
2012,06,16,12,51,17.20
2012,06,16,12,52,17.20
2012,06,16,12,53,17.10
2012,06,16,12,55,17.10
2012,06,16,12,56,17.20
2012,06,16,12,58,17.30
2012,06,16,12,59,17.30
2012,06,16,13,00,17.30
2012,06,16,13,01,17.30
2012,06,16,13,02,17.30
2012,06,16,13,04,17.20
2012,06,16,13,06,17.20
2012,06,16,13,07,17.20
2012,06,16,13,08,17.20
2012,06,16,13,10,17.20
2012,06,16,13,12,17.30
2012,06,16,13,14,17.30
2012,06,16,13,15,17.30
2012,06,16,13,17,17.30
2012,06,16,13,18,17.30
2012,06,16,13,19,17.30
2012,06,16,13,20,17.30
2012,06,16,13,22,17.30
2012,06,16,13,23,17.30
2012,06,16,13,25,17.40
2012,06,16,13,26,17.50
2012,06,16,13,27,17.40
2012,06,16,13,29,17.50
2012,06,16,13,30,17.50
2012,06,16,13,31,17.40
2012,06,16,13,33,17.40
2012,06,16,13,34,17.30
2012,06,16,13,35,17.30
2012,06,16,13,36,17.30
2012,06,16,13,37,17.30
2012,06,16,13,38,17.30
2012,06,16,13,39,17.30
2012,06,16,13,40,17.30
2012,06,16,13,41,17.40
2012,06,16,13,42,17.40
2012,06,16,13,43,17.40
2012,06,16,13,44,17.40
2012,06,16,13,45,17.40
2012,06,16,13,46,17.40
2012,06,16,13,47,17.40
2012,06,16,13,48,17.40
2012,06,16,13,50,17.30
2012,06,16,13,51,17.30
2012,06,16,13,52,17.30
2012,06,16,13,53,17.20
2012,06,16,13,54,17.20
2012,06,16,13,55,17.20
2012,06,16,13,56,17.20
2012,06,16,13,58,17.10
2012,06,16,13,59,17.10
2012,06,16,14,01,17.20
2012,06,16,14,02,17.20
2012,06,16,14,05,17.10
2012,06,16,14,06,17.10
2012,06,16,14,07,17.10
2012,06,16,14,08,17.10
2012,06,16,14,09,17.10
2012,06,16,14,10,17.10
2012,06,16,14,11,17.10
2012,06,16,14,12,17.10
2012,06,16,14,13,17.10
2012,06,16,14,15,17.10
2012,06,16,14,16,17.10
2012,06,16,14,18,17.10
2012,06,16,14,20,17.20
2012,06,16,14,22,17.10
2012,06,16,14,24,17.10
2012,06,16,14,25,17.10
2012,06,16,14,27,16.90
2012,06,16,14,28,16.90
2012,06,16,14,29,16.80
2012,06,16,14,30,16.80
2012,06,16,14,31,16.70
2012,06,16,14,33,16.70
2012,06,16,14,34,16.60
2012,06,16,14,35,16.60
2012,06,16,14,37,16.40
2012,06,16,14,38,16.40
2012,06,16,14,39,16.40
2012,06,16,14,40,16.40
2012,06,16,14,41,16.40
2012,06,16,14,43,16.40
2012,06,16,14,45,16.40
2012,06,16,14,46,16.40
2012,06,16,14,47,16.40
2012,06,16,14,49,16.40
2012,06,16,14,50,16.30
2012,06,16,14,51,16.30
2012,06,16,14,53,16.30
2012,06,16,14,54,16.20
2012,06,16,14,55,16.20
2012,06,16,14,57,16.20
2012,06,16,14,58,16.20
2012,06,16,14,59,16.20
2012,06,16,15,00,16.10
2012,06,16,15,01,16.10
2012,06,16,15,02,16.10
2012,06,16,15,05,16.10
2012,06,16,15,06,16.10
2012,06,16,15,08,16.10
2012,06,16,15,09,16.10
2012,06,16,15,10,16.10
2012,06,16,15,12,16.10
2012,06,16,15,13,16.10
2012,06,16,15,14,16.10
2012,06,16,15,15,16.10
2012,06,16,15,16,16.10
2012,06,16,15,18,16.20
2012,06,16,15,20,16.20
2012,06,16,15,22,16.30
2012,06,16,15,23,16.30
2012,06,16,15,25,16.30
2012,06,16,15,26,16.30
2012,06,16,15,27,16.30
2012,06,16,15,28,16.30
2012,06,16,15,29,16.30
2012,06,16,15,31,16.30
2012,06,16,15,33,16.30
2012,06,16,15,35,16.30
2012,06,16,15,36,16.30
2012,06,16,15,38,16.30
2012,06,16,15,39,16.30
2012,06,16,15,40,16.30
2012,06,16,15,41,16.30
2012,06,16,15,42,16.30
2012,06,16,15,43,16.30
2012,06,16,15,44,16.30
2012,06,16,15,45,16.30
2012,06,16,15,46,16.30
2012,06,16,15,48,16.40
2012,06,16,15,49,16.30
2012,06,16,15,51,16.30
2012,06,16,15,52,16.30
2012,06,16,15,53,16.30
2012,06,16,15,54,16.30
2012,06,16,15,56,16.20
2012,06,16,15,57,16.30
2012,06,16,15,58,16.30
2012,06,16,16,00,16.40
2012,06,16,16,01,16.40
2012,06,16,16,02,16.40
2012,06,16,16,03,16.40
2012,06,16,16,05,16.40
2012,06,16,16,06,16.40
2012,06,16,16,08,16.40
2012,06,16,16,09,16.40
2012,06,16,16,10,16.40
2012,06,16,16,11,16.40
2012,06,16,16,13,16.40
2012,06,16,16,15,16.40
2012,06,16,16,17,16.50
2012,06,16,16,18,16.50
2012,06,16,16,19,16.60
2012,06,16,16,20,16.60
2012,06,16,16,21,16.60
2012,06,16,16,22,16.70
2012,06,16,16,24,16.70
2012,06,16,16,25,16.80
2012,06,16,16,27,16.90
2012,06,16,16,28,16.90
2012,06,16,16,29,16.90
2012,06,16,16,31,16.90
2012,06,16,16,32,16.90
2012,06,16,16,33,16.90
2012,06,16,16,35,16.90
2012,06,16,16,36,16.90
2012,06,16,16,37,16.90
2012,06,16,16,39,16.90
2012,06,16,16,40,16.80
2012,06,16,16,42,16.80
2012,06,16,16,44,16.80
2012,06,16,16,45,16.80
2012,06,16,16,46,16.90
2012,06,16,16,47,16.90
2012,06,16,16,48,16.90
2012,06,16,16,49,17.10
2012,06,16,16,51,17.10
2012,06,16,16,52,17.20
2012,06,16,16,53,17.20
2012,06,16,16,55,17.10
2012,06,16,16,56,17.20
2012,06,16,16,57,17.20
2012,06,16,16,58,17.20
2012,06,16,16,59,17.20
2012,06,16,17,00,17.20
2012,06,16,17,01,17.10
2012,06,16,17,02,17.10
2012,06,16,17,03,17.10
2012,06,16,17,05,16.90
2012,06,16,17,06,16.90
2012,06,16,17,07,16.90
2012,06,16,17,09,16.90
2012,06,16,17,10,16.80
2012,06,16,17,11,16.80
2012,06,16,17,13,16.60
2012,06,16,17,14,16.60
2012,06,16,17,15,16.60
2012,06,16,17,16,16.50
2012,06,16,17,17,16.50
2012,06,16,17,18,16.50
2012,06,16,17,20,16.50
2012,06,16,17,21,16.40
2012,06,16,17,22,16.40
2012,06,16,17,24,16.40
2012,06,16,17,25,16.40
2012,06,16,17,27,16.40
2012,06,16,17,28,16.40
2012,06,16,17,29,16.40
2012,06,16,17,31,16.40
2012,06,16,17,32,16.40
2012,06,16,17,34,16.40
2012,06,16,17,36,16.30
2012,06,16,17,37,16.30
2012,06,16,17,38,16.30
2012,06,16,17,40,16.30
2012,06,16,17,41,16.30
2012,06,16,17,43,16.30
2012,06,16,17,44,16.30
2012,06,16,17,45,16.30
2012,06,16,17,47,16.30
2012,06,16,17,48,16.30
2012,06,16,17,49,16.30
2012,06,16,17,50,16.30
2012,06,16,17,52,16.30
2012,06,16,17,53,16.30
2012,06,16,17,55,16.30
2012,06,16,17,56,16.40
2012,06,16,17,58,16.40
2012,06,16,17,59,16.30
2012,06,16,18,00,16.40
2012,06,16,18,01,16.30
2012,06,16,18,02,16.30
2012,06,16,18,03,16.30
2012,06,16,18,04,16.30
2012,06,16,18,07,16.20
2012,06,16,18,08,16.20
2012,06,16,18,09,16.20
2012,06,16,18,10,16.10
2012,06,16,18,11,16.10
2012,06,16,18,12,16.10
2012,06,16,18,13,16.10
2012,06,16,18,15,16.10
2012,06,16,18,16,16.10
2012,06,16,18,17,16.10
2012,06,16,18,18,16.10
2012,06,16,18,19,16.00
2012,06,16,18,20,16.00
2012,06,16,18,21,15.90
2012,06,16,18,22,15.90
2012,06,16,18,23,15.90
2012,06,16,18,24,15.90
2012,06,16,18,25,15.90
2012,06,16,18,27,15.90
2012,06,16,18,28,15.80
2012,06,16,18,29,15.80
2012,06,16,18,30,15.80
2012,06,16,18,31,15.80
2012,06,16,18,32,15.80
2012,06,16,18,34,15.80
2012,06,16,18,35,15.90
2012,06,16,18,37,15.90
2012,06,16,18,39,16.00
2012,06,16,18,40,16.10
2012,06,16,18,42,16.10
2012,06,16,18,44,16.20
2012,06,16,18,45,16.30
2012,06,16,18,46,16.30
2012,06,16,18,48,16.40
2012,06,16,18,50,16.40
2012,06,16,18,52,16.40
2012,06,16,18,54,16.50
2012,06,16,18,55,16.60
2012,06,16,18,56,16.60
2012,06,16,18,58,16.60
2012,06,16,18,59,16.60
2012,06,16,19,00,16.70
2012,06,16,19,01,16.70
2012,06,16,19,02,16.70
2012,06,16,19,05,16.70
2012,06,16,19,07,16.70
2012,06,16,19,08,16.70
2012,06,16,19,10,16.70
2012,06,16,19,11,16.70
2012,06,16,19,12,16.70
2012,06,16,19,13,16.70
2012,06,16,19,15,16.60
2012,06,16,19,16,16.60
2012,06,16,19,17,16.60
2012,06,16,19,18,16.50
2012,06,16,19,19,16.40
2012,06,16,19,21,16.30
2012,06,16,19,22,16.30
2012,06,16,19,23,16.30
2012,06,16,19,25,16.20
2012,06,16,19,27,16.20
2012,06,16,19,28,16.10
2012,06,16,19,29,16.10
2012,06,16,19,31,16.00
2012,06,16,19,33,15.90
2012,06,16,19,34,15.90
2012,06,16,19,35,15.80
2012,06,16,19,36,15.80
2012,06,16,19,37,15.80
2012,06,16,19,39,15.70
2012,06,16,19,41,15.70
2012,06,16,19,42,15.70
2012,06,16,19,43,15.70
2012,06,16,19,45,15.70
2012,06,16,19,46,15.70
2012,06,16,19,47,15.70
2012,06,16,19,48,15.70
2012,06,16,19,49,15.70
2012,06,16,19,50,15.70
2012,06,16,19,52,15.70
2012,06,16,19,53,15.70
2012,06,16,19,55,15.70
2012,06,16,19,56,15.70
2012,06,16,19,57,15.70
2012,06,16,19,59,15.70
2012,06,16,20,01,15.70
2012,06,16,20,02,15.70
2012,06,16,20,03,15.70
2012,06,16,20,06,15.70
2012,06,16,20,07,15.70
2012,06,16,20,08,15.70
2012,06,16,20,09,15.70
2012,06,16,20,10,15.70
2012,06,16,20,11,15.60
2012,06,16,20,12,15.60
2012,06,16,20,13,15.60
2012,06,16,20,15,15.60
2012,06,16,20,16,15.60
2012,06,16,20,17,15.60
2012,06,16,20,19,15.70
2012,06,16,20,20,15.70
2012,06,16,20,22,15.70
2012,06,16,20,23,15.60
2012,06,16,20,25,15.60
2012,06,16,20,27,15.50
2012,06,16,20,28,15.50
2012,06,16,20,29,15.40
2012,06,16,20,30,15.40
2012,06,16,20,31,15.40
2012,06,16,20,33,15.30
2012,06,16,20,34,15.30
2012,06,16,20,35,15.30
2012,06,16,20,36,15.30
2012,06,16,20,38,15.20
2012,06,16,20,39,15.10
2012,06,16,20,40,15.00
2012,06,16,20,42,15.00
2012,06,16,20,43,15.00
2012,06,16,20,44,15.00
2012,06,16,20,45,15.00
2012,06,16,20,46,15.00
2012,06,16,20,47,15.00
2012,06,16,20,49,14.90
2012,06,16,20,50,14.80
2012,06,16,20,51,14.80
2012,06,16,20,52,14.80
2012,06,16,20,53,14.80
2012,06,16,20,54,14.80
2012,06,16,20,55,14.80
2012,06,16,20,57,14.90
2012,06,16,20,58,14.90
2012,06,16,20,59,14.80
2012,06,16,21,00,14.80
2012,06,16,21,01,14.80
2012,06,16,21,02,14.80
2012,06,16,21,05,14.90
2012,06,16,21,06,14.90
2012,06,16,21,07,14.90
2012,06,16,21,08,14.90
2012,06,16,21,10,15.00
2012,06,16,21,12,15.00
2012,06,16,21,14,15.00
2012,06,16,21,15,15.00
2012,06,16,21,17,15.00
2012,06,16,21,18,15.00
2012,06,16,21,19,15.00
2012,06,16,21,20,15.00
2012,06,16,21,22,15.00
2012,06,16,21,23,15.00
2012,06,16,21,25,14.80
2012,06,16,21,26,14.80
2012,06,16,21,27,14.80
2012,06,16,21,29,14.80
2012,06,16,21,30,14.80
2012,06,16,21,31,14.80
2012,06,16,21,32,14.80
2012,06,16,21,34,14.70
2012,06,16,21,35,14.70
2012,06,16,21,37,14.70
2012,06,16,21,39,14.70
2012,06,16,21,41,14.70
2012,06,16,21,42,14.70
2012,06,16,21,44,14.70
2012,06,16,21,45,14.70
2012,06,16,21,46,14.70
2012,06,16,21,47,14.70
2012,06,16,21,48,14.70
2012,06,16,21,49,14.70
2012,06,16,21,50,14.70
2012,06,16,21,52,14.70
2012,06,16,21,53,14.70
2012,06,16,21,54,14.70
2012,06,16,21,55,14.80
2012,06,16,21,56,14.80
2012,06,16,21,57,14.80
2012,06,16,21,58,14.80
2012,06,16,22,00,14.80
2012,06,16,22,01,14.80
2012,06,16,22,02,14.80
2012,06,16,22,03,14.80
2012,06,16,22,06,14.70
2012,06,16,22,07,14.70
2012,06,16,22,08,14.60
2012,06,16,22,09,14.60
2012,06,16,22,11,14.40
2012,06,16,22,12,14.40
2012,06,16,22,13,14.30
2012,06,16,22,14,14.30
2012,06,16,22,15,14.30
2012,06,16,22,16,14.20
2012,06,16,22,17,14.20
2012,06,16,22,18,14.20
2012,06,16,22,20,14.10
2012,06,16,22,22,14.00
2012,06,16,22,23,14.00
2012,06,16,22,24,14.00
2012,06,16,22,25,13.90
2012,06,16,22,26,13.90
2012,06,16,22,27,13.90
2012,06,16,22,28,13.90
2012,06,16,22,30,13.90
2012,06,16,22,31,13.90
2012,06,16,22,32,13.80
2012,06,16,22,34,13.80
2012,06,16,22,35,13.80
2012,06,16,22,36,13.80
2012,06,16,22,38,13.80
2012,06,16,22,39,13.80
2012,06,16,22,40,13.70
2012,06,16,22,41,13.70
2012,06,16,22,43,13.70
2012,06,16,22,44,13.70
2012,06,16,22,45,13.70
2012,06,16,22,47,13.80